Kankakee, IL

11:04 AM CDT on May 20, 2018 (GMT -0500)
Greater Kankakee

Weather History for KIKK - November, 2014

Change the Weather History Date:

Tuesday, November 4, 2014

  Actual Average Record
Temperature  
Mean Temperature 48 °F -  
Max Temperature 56 °F 55 °F 76 °F (1987)
Min Temperature 40 °F 35 °F 7 °F (1991)
Degree Days  
Heating Degree Days 16    
Moisture  
Dew Point 42 °F    
Average Humidity 82    
Maximum Humidity 97    
Minimum Humidity 48    
Precipitation  
Precipitation 0.09 in - - ()
Sea Level Pressure  
Sea Level Pressure 30.03 in    
Wind  
Wind Speed 15 mph (SW)    
Max Wind Speed 21 mph    
Max Gust Speed 28 mph    
Visibility 9 miles    
Events Rain    
Averages and records for this station are not official NWS values.
T = Trace of Precipitation, MM = Missing Value Source: NWS Daily Summary

Daily Weather History Graph

Daily Weather History Graph

Search for Another Location

Airport or City:

Astronomy

Nov. 04, 2014 Rise Set
Actual Time 6:25 AM CST 4:43 PM CST
Civil Twilight 5:57 AM CST 5:12 PM CST
Nautical Twilight 5:24 AM CST 5:44 PM CST
Astronomical Twilight 4:52 AM CST 6:16 PM CST
Moon 3:31 PM CST (11/4) 3:42 AM CST (11/4)
Length of Visible Light 11h 15m
Length of Day
10h 17m
Waxing Gibbous, 94% of the Moon is Illuminated
Nov 4
Waxing Gibbous
Nov 6
Full
Nov 14
Last Quarter
Nov 22
New
Nov 29
First Quarter

Hourly Weather History & Observations

Time (CST) Temp. Windchill Dew Point Humidity Pressure Visibility Wind Dir Wind Speed Gust Speed Precip Events Conditions
12:15 AM 56.1 °F - 36.5 °F 48% 30.00 in 10.0 mi SSW 17.3 mph 26.5 mph N/A   Overcast
12:35 AM 56.3 °F - 36.9 °F 48% 30.00 in 10.0 mi SSW 19.6 mph 27.6 mph N/A   Overcast
12:55 AM 56.3 °F - 37.4 °F 49% 30.00 in 10.0 mi SSW 18.4 mph 25.3 mph N/A   Overcast
1:15 AM 56.3 °F - 38.1 °F 51% 29.99 in 10.0 mi SSW 18.4 mph 23.0 mph N/A   Overcast
1:35 AM 55.6 °F - 38.8 °F 53% 29.99 in 10.0 mi SSW 18.4 mph 24.2 mph N/A   Overcast
1:55 AM 55.0 °F - 39.6 °F 56% 29.98 in 10.0 mi SSW 17.3 mph 25.3 mph N/A   Overcast
2:15 AM 55.6 °F - 40.1 °F 56% 29.97 in 10.0 mi SSW 20.7 mph 26.5 mph N/A   Overcast
2:35 AM 55.6 °F - 41.4 °F 59% 29.97 in 10.0 mi SSW 20.7 mph 27.6 mph N/A   Overcast
2:55 AM 55.4 °F - 41.0 °F 58% 29.97 in 10.0 mi SSW 19.6 mph 24.2 mph N/A Rain Light Rain
3:15 AM 55.0 °F - 41.2 °F 60% 29.97 in 10.0 mi SSW 17.3 mph 21.9 mph N/A   Overcast
3:35 AM 51.8 °F - 45.1 °F 78% 30.00 in 7.0 mi SW 17.3 mph 24.2 mph 0.01 in Rain Rain
3:55 AM 50.0 °F - 46.4 °F 87% 29.99 in 10.0 mi SSW 16.1 mph - N/A Rain Light Rain
4:15 AM 50.4 °F - 47.8 °F 91% 29.98 in 10.0 mi SSW 16.1 mph 21.9 mph 0.02 in Rain Light Rain
4:35 AM 50.5 °F - 48.2 °F 92% 29.98 in 10.0 mi SSW 17.3 mph 26.5 mph 0.04 in Rain Light Rain
4:55 AM 50.0 °F - 47.8 °F 92% 29.97 in 10.0 mi South 18.4 mph 24.2 mph 0.04 in   Light Drizzle
5:15 AM 50.5 °F - 48.2 °F 92% 29.97 in 10.0 mi SSW 17.3 mph - N/A   Overcast
5:35 AM 50.4 °F - 48.0 °F 92% 29.96 in 10.0 mi SSW 15.0 mph 21.9 mph N/A   Overcast
5:55 AM 50.0 °F - 48.2 °F 94% 29.96 in 7.0 mi SSW 16.1 mph 21.9 mph N/A Rain Rain
6:15 AM 50.0 °F - 48.2 °F 94% 29.96 in 7.0 mi SSW 16.1 mph 25.3 mph N/A   Light Drizzle
6:35 AM 50.2 °F - 48.2 °F 93% 29.96 in 5.0 mi SSW 15.0 mph 24.2 mph N/A Rain Light Rain
6:55 AM 50.4 °F - 49.1 °F 95% 29.97 in 4.0 mi SSW 18.4 mph 23.0 mph 0.01 in Rain Rain
7:15 AM 50.2 °F - 48.9 °F 95% 29.96 in 10.0 mi SSW 17.3 mph 23.0 mph N/A   Overcast
7:35 AM 50.2 °F - 48.4 °F 94% 29.97 in 10.0 mi SSW 17.3 mph 24.2 mph N/A Rain Light Rain
7:55 AM 51.8 °F - 48.2 °F 88% 29.98 in 10.0 mi SSW 18.4 mph 26.5 mph N/A   Overcast
8:15 AM 50.9 °F - 49.1 °F 94% 29.97 in 10.0 mi SSW 16.1 mph 24.2 mph N/A   Overcast
8:35 AM 50.9 °F - 49.1 °F 94% 29.97 in 10.0 mi SSW 17.3 mph 21.9 mph N/A   Overcast
8:55 AM 51.1 °F - 49.3 °F 94% 29.97 in 10.0 mi SSW 16.1 mph 20.7 mph N/A   Overcast
9:15 AM 51.3 °F - 49.5 °F 94% 29.97 in 10.0 mi SSW 16.1 mph 21.9 mph N/A   Overcast
9:35 AM 51.1 °F - 49.5 °F 94% 29.98 in 4.0 mi SSW 17.3 mph 23.0 mph N/A Rain Rain
9:55 AM 50.9 °F - 50.0 °F 97% 29.98 in 1.8 mi SSW 15.0 mph - N/A   Drizzle
10:15 AM 51.3 °F - 50.2 °F 96% 30.00 in 2.0 mi SW 17.3 mph - N/A   Overcast
10:35 AM 49.6 °F - 46.8 °F 90% 30.01 in 4.0 mi West 15.0 mph 18.4 mph N/A   Overcast
10:55 AM 48.7 °F - 46.2 °F 91% 30.02 in 10.0 mi West 13.8 mph 18.4 mph N/A   Overcast
11:15 AM 48.4 °F - 45.7 °F 90% 30.02 in 5.0 mi WSW 12.7 mph 16.1 mph N/A   Light Drizzle
11:35 AM - - - N/A% - - North - - N/A   Unknown
11:55 AM 48.6 °F - 44.6 °F 86% 30.01 in 10.0 mi West 10.4 mph - 0.03 in   Overcast
12:15 PM 49.3 °F - 45.7 °F 87% 30.01 in 10.0 mi WSW 12.7 mph 17.3 mph N/A   Overcast
12:35 PM 49.1 °F - 44.4 °F 84% 30.01 in 10.0 mi West 15.0 mph - N/A   Overcast
12:55 PM 49.3 °F - 45.1 °F 86% 30.02 in 10.0 mi West 16.1 mph 23.0 mph N/A   Overcast
1:15 PM 49.1 °F - 43.2 °F 80% 30.02 in 10.0 mi West 20.7 mph 26.5 mph N/A   Mostly Cloudy
1:35 PM 48.9 °F - 42.4 °F 78% 30.02 in 10.0 mi West 18.4 mph 24.2 mph N/A   Light Drizzle
1:55 PM 48.6 °F - 42.8 °F 80% 30.02 in 10.0 mi West 15.0 mph 21.9 mph N/A   Scattered Clouds
2:15 PM 48.2 °F - 41.0 °F 76% 30.02 in 10.0 mi West 13.8 mph - N/A   Scattered Clouds
2:35 PM 48.0 °F - 40.1 °F 74% 30.03 in 10.0 mi West 15.0 mph 24.2 mph N/A   Clear
2:55 PM 47.8 °F - 39.6 °F 73% 30.04 in 10.0 mi West 13.8 mph - N/A   Clear
3:15 PM 47.7 °F - 39.2 °F 72% 30.04 in 10.0 mi West 16.1 mph 20.7 mph N/A   Clear
3:35 PM 47.5 °F - 39.7 °F 75% 30.05 in 10.0 mi West 10.4 mph - N/A   Clear
3:55 PM 47.3 °F - 39.7 °F 75% 30.06 in 10.0 mi West 10.4 mph 16.1 mph N/A   Clear
4:15 PM 46.6 °F - 39.7 °F 77% 30.05 in 10.0 mi WSW 10.4 mph - N/A   Clear
4:35 PM 46.2 °F 41.7 °F 39.6 °F 78% 30.06 in 10.0 mi West 9.2 mph - N/A   Clear
4:55 PM 45.9 °F 40.4 °F 39.4 °F 78% 30.06 in 10.0 mi West 11.5 mph - N/A   Clear
5:15 PM 45.5 °F 39.9 °F 39.2 °F 79% 30.07 in 10.0 mi West 11.5 mph - N/A   Clear
5:35 PM 45.5 °F 40.8 °F 39.0 °F 78% 30.07 in 10.0 mi West 9.2 mph - N/A   Clear
5:55 PM 44.8 °F 39.9 °F 38.8 °F 80% 30.08 in 10.0 mi WSW 9.2 mph - N/A   Clear
6:15 PM 43.9 °F 39.9 °F 38.8 °F 82% 30.08 in 10.0 mi WSW 6.9 mph - N/A   Clear
6:35 PM 43.9 °F 38.8 °F 38.7 °F 82% 30.10 in 10.0 mi WSW 9.2 mph - N/A   Clear
6:55 PM 43.7 °F 40.3 °F 38.8 °F 83% 30.10 in 10.0 mi WSW 5.8 mph - N/A   Clear
7:15 PM 42.6 °F 39.0 °F 38.3 °F 85% 30.10 in 10.0 mi WSW 5.8 mph - N/A   Clear
7:35 PM 42.4 °F 38.8 °F 38.3 °F 85% 30.10 in 10.0 mi WSW 5.8 mph - N/A   Clear
7:55 PM 42.1 °F 37.1 °F 38.3 °F 86% 30.10 in 10.0 mi SSW 8.1 mph - N/A   Clear
8:15 PM 41.0 °F 36.4 °F 38.1 °F 89% 30.11 in 10.0 mi SW 6.9 mph - N/A   Clear
8:35 PM 41.5 °F 37.1 °F 38.3 °F 88% 30.12 in 10.0 mi WSW 6.9 mph - N/A   Clear
8:55 PM 41.0 °F 37.1 °F 37.8 °F 88% 30.12 in 10.0 mi SW 5.8 mph - N/A   Clear
9:15 PM 41.0 °F 35.8 °F 37.6 °F 88% 30.13 in 10.0 mi SW 8.1 mph - N/A   Clear
9:35 PM 41.2 °F 36.0 °F 37.6 °F 87% 30.13 in 10.0 mi SW 8.1 mph - N/A   Clear
9:55 PM 41.4 °F 36.2 °F 37.9 °F 88% 30.13 in 10.0 mi WSW 8.1 mph - N/A   Clear
10:15 PM 41.4 °F 36.8 °F 37.8 °F 87% 30.13 in 10.0 mi SW 6.9 mph - N/A   Clear
10:35 PM 41.4 °F 36.2 °F 37.9 °F 88% 30.13 in 10.0 mi SW 8.1 mph - N/A   Clear
10:55 PM 41.0 °F 35.8 °F 37.8 °F 88% 30.13 in 10.0 mi SW 8.1 mph - N/A   Clear
11:15 PM 41.0 °F 35.2 °F 37.6 °F 88% 30.13 in 10.0 mi SW 9.2 mph - N/A   Clear
11:35 PM 41.0 °F 35.2 °F 37.6 °F 88% 30.13 in 10.0 mi SW 9.2 mph - N/A   Clear
11:55 PM 40.6 °F 36.0 °F 37.4 °F 88% 30.13 in 10.0 mi SW 6.9 mph - N/A   Clear